This is the latest recevied weather packets stored in our database for station/object KE0PRS. If no packets are shown the sender has not sent any weather packets the latest 10 day(s).
| Time | Temp. | Humidity | Pressure | Rain* | Wind** | Luminosity | Snow |
|---|---|---|---|---|---|---|---|
| 1787969406 | 28.33° C | 54% | 1016.5 hPa | 0 mm | - | 0 W/m² | - |
| 1787969100 | 28.33° C | 53% | 1016.5 hPa | 0 mm | - | 0 W/m² | - |
| 1787968799 | 28.89° C | 52% | 1016.1 hPa | 0 mm | - | 0 W/m² | - |
| 1787968499 | 28.89° C | 51% | 1016.5 hPa | 0 mm | - | 0 W/m² | - |
| 1787968195 | 28.89° C | 51% | 1016.2 hPa | 0 mm | - | 0 W/m² | - |
| 1787967895 | 28.89° C | 51% | 1016.2 hPa | 0 mm | - | 0 W/m² | - |
| 1787967592 | 29.44° C | 51% | 1016.1 hPa | 0 mm | - | 0 W/m² | - |
| 1787967291 | 29.44° C | 51% | 1016.2 hPa | 0 mm | - | 0 W/m² | - |
| 1787966988 | 29.44° C | 50% | 1016.1 hPa | 0 mm | - | 0 W/m² | - |
| 1787966684 | 30° C | 51% | 1016.2 hPa | 0 mm | - | 0 W/m² | - |
| 1787966384 | 30° C | 50% | 1016.1 hPa | 0 mm | - | 1 W/m² | - |
| 1787966079 | 30.56° C | 50% | 1015.9 hPa | 0 mm | - | 2 W/m² | - |
| 1787965777 | 30.56° C | 49% | 1015.8 hPa | 0 mm | - | 4 W/m² | - |
| 1787965473 | 31.11° C | 48% | 1016 hPa | 0 mm | - | 7 W/m² | - |
| 1787965172 | 31.11° C | 48% | 1015.9 hPa | 0 mm | - | 9 W/m² | - |
| 1787964866 | 31.11° C | 48% | 1015.9 hPa | 0 mm | - | 14 W/m² | - |
| 1787964562 | 31.67° C | 47% | 1016 hPa | 0 mm | - | 18 W/m² | - |
| 1787964257 | 31.67° C | 47% | 1015.9 hPa | 0 mm | - | 23 W/m² | - |
| 1787963956 | 32.22° C | 46% | 1016 hPa | 0 mm | - | 25 W/m² | - |
| 1787963651 | 32.22° C | 44% | 1015.9 hPa | 0 mm | - | 29 W/m² | - |
| 1787963351 | 32.78° C | 43% | 1015.9 hPa | 0 mm | - | 36 W/m² | - |
| 1787963047 | 32.78° C | 42% | 1016.1 hPa | 0 mm | - | 39 W/m² | - |
| 1787962746 | 33.33° C | 41% | 1016 hPa | 0 mm | - | 56 W/m² | - |
| 1787962445 | 33.33° C | 39% | 1016.1 hPa | 0 mm | - | 63 W/m² | - |
| 1787962144 | 33.89° C | 39% | 1016 hPa | 0 mm | - | 70 W/m² | - |
* Rain latest hour (hover to see other rain measurements)
** Current wind speed in m/s (hover to see current wind gust speed)